FW2418 Weather Reports


time (UTC)temp
C
wind
direction
speed
KPH
gust
KPH
rain 1hr
cm
rain 24hr
cm
rain mn
cm
humidity
%
barometer
mb
20260901212228 29 49 3.2 8.0 0.00 0.00 0.00 78 1012.7
20260901211228 30 66 3.2 9.7 0.00 0.00 0.00 77 1013.0
20260901210125 30 46 3.2 12.9 0.00 0.00 0.00 75 1012.7
20260901205052 30 77 3.2 14.5 0.00 0.00 0.00 75 1013.0
20260901204020 30 38 3.2 12.9 0.00 0.00 0.00 76 1013.0
20260901203020 30 33 4.8 9.7 0.00 0.00 0.00 77 1013.0
20260901202019 30 40 3.2 8.0 0.00 0.00 0.00 75 1013.0
20260901201018 30 60 3.2 8.0 0.00 0.00 0.00 75 1013.0
20260901195946 30 67 3.2 8.0 0.00 0.00 0.00 73 1013.0
20260901194945 30 45 1.6 8.0 0.00 0.00 0.00 73 1013.4
20260901193945 30 109 1.6 11.3 0.00 0.00 0.00 73 1013.4
20260901192944 30 84 3.2 11.3 0.00 0.00 0.00 73 1013.4
20260901191943 30 27 3.2 9.7 0.00 0.00 0.00 74 1013.7
20260901190911 30 57 3.2 11.3 0.00 0.00 0.00 73 1013.7
20260901185910 31 48 3.2 8.0 0.00 0.00 0.00 71 1013.7
20260901184838 31 28 3.2 9.7 0.00 0.00 0.00 70 1013.7
20260901183837 31 33 3.2 9.7 0.00 0.00 0.00 71 1013.7
20260901182837 31 117 1.6 9.7 0.00 0.00 0.00 73 1013.7
20260901181836 31 84 3.2 11.3 0.00 0.00 0.00 75 1013.7
20260901180835 30 33 4.8 14.5 0.00 0.00 0.00 75 1014.0
20260901175803 30 80 3.2 16.1 0.00 0.00 0.00 76 1014.0
20260901174802 31 53 4.8 16.1 0.00 0.00 0.00 74 1014.4
20260901173801 32 45 3.2 9.7 0.00 0.00 0.00 72 1014.4
20260901172801 31 68 3.2 8.0 0.00 0.00 0.00 73 1014.4
20260901171800 30 36 3.2 6.4 0.00 0.00 0.00 77 1014.4
20260901170759 29 25 1.6 6.4 0.00 0.00 0.00 82 1014.7
20260901165758 30 319 1.6 9.7 0.00 0.00 0.00 80 1014.7
20260901164757 30 309 1.6 11.3 0.00 0.00 0.00 81 1014.7
20260901163757 31 340 3.2 12.9 0.00 0.00 0.00 76 1014.7
20260901162756 31 62 3.2 11.3 0.00 0.00 0.00 73 1014.7
20260901161755 31 52 1.6 11.3 0.00 0.00 0.00 73 1014.7
20260901160754 31 24 3.2 11.3 0.00 0.00 0.00 72 1015.1
20260901155753 32 16 3.2 11.3 0.00 0.00 0.00 71 1015.1
20260901154752 31 17 4.8 12.9 0.00 0.00 0.00 72 1015.1
20260901153752 31 22 3.2 8.0 0.00 0.00 0.00 72 1015.1
20260901152751 31 54 3.2 9.7 0.00 0.00 0.00 71 1015.1
20260901151750 31 42 3.2 9.7 0.00 0.00 0.00 74 1015.1
20260901150749 30 12 3.2 9.7 0.00 0.00 0.00 77 1015.1
20260901145748 30 20 1.6 9.7 0.00 0.00 0.00 77 1015.1
20260901144747 30 26 3.2 9.7 0.00 0.00 0.00 77 1015.1
20260901143747 30 10 3.2 8.0 0.00 0.00 0.00 79 1015.1
20260901142714 30 24 3.2 6.4 0.00 0.00 0.00 80 1015.1
20260901141713 30 27 3.2 6.4 0.00 0.00 0.00 82 1014.7
20260901140641 29 336 1.6 6.4 0.00 0.00 0.00 82 1014.7
20260901135641 29 331 1.6 8.0 0.00 0.00 0.00 83 1015.1
20260901134640 28 42 3.2 8.0 0.00 0.00 0.00 84 1014.7
20260901133639 28 11 3.2 6.4 0.00 0.00 0.00 84 1014.7
20260901132639 28 64 1.6 6.4 0.00 0.00 0.00 85 1014.7
20260901131638 28 24 3.2 8.0 0.00 0.00 0.00 88 1014.7
20260901130637 27 65 3.2 8.0 0.00 0.00 0.00 91 1014.7
20260901125636 26 43 3.2 3.2 0.00 0.00 0.00 95 1014.7
20260901124635 25 47 1.6 3.2 0.00 0.00 0.00 99 1014.7
20260901123634 24 67 1.6 1.6 0.00 0.00 0.00 99 1014.7
20260901122634 24 34 0.0 1.6 0.00 0.00 0.00 99 1014.7
20260901121633 24 42 0.0 1.6 0.00 0.00 0.00 99 1014.3
20260901120632 23 25 0.0 0.0 0.00 0.00 0.00 99 1014.3
20260901115631 23 25 0.0 0.0 0.00 0.00 0.00 99 1014.3
20260901114630 23 24 0.0 0.0 0.00 0.00 0.00 99 1014.0
20260901113629 23 24 0.0 0.0 0.00 0.00 0.00 99 1014.0
20260901112629 23 25 0.0 0.0 0.00 0.00 0.00 99 1014.0
20260901111628 23 25 0.0 0.0 0.00 0.00 0.00 99 1013.7
20260901110627 23 25 0.0 0.0 0.00 0.00 0.00 99 1013.7
20260901105626 23 24 0.0 0.0 0.00 0.00 0.00 99 1013.3
20260901104452 23 25 0.0 0.0 0.00 0.00 0.00 99 1013.3
20260901103451 23 25 0.0 0.0 0.00 0.00 0.00 99 1013.3
20260901102450 23 24 0.0 0.0 0.00 0.00 0.00 99 1013.3
20260901101449 23 25 0.0 0.0 0.00 0.00 0.00 99 1013.3
20260901100448 23 24 0.0 0.0 0.00 0.00 0.00 99 1013.3
20260901095448 23 25 0.0 0.0 0.00 0.00 0.00 99 1013.3
20260901094447 23 24 0.0 0.0 0.00 0.00 0.00 99 1013.3
20260901093446 23 24 0.0 0.0 0.00 0.00 0.00 99 1013.3
20260901092445 23 24 0.0 0.0 0.00 0.00 0.00 99 1013.3
20260901091444 24 25 0.0 0.0 0.00 0.00 0.00 99 1013.0
20260901090341 24 25 0.0 0.0 0.00 0.00 0.00 99 1013.0
20260901085309 24 24 0.0 0.0 0.00 0.00 0.00 99 1013.0
20260901084308 24 25 0.0 0.0 0.00 0.00 0.00 99 1013.0
20260901083307 24 24 0.0 1.6 0.00 0.00 0.00 99 1013.0
20260901082306 24 25 0.0 1.6 0.00 0.00 0.00 99 1013.0
20260901081234 24 25 0.0 0.0 0.00 0.00 0.00 99 1013.4
20260901080233 24 25 0.0 1.6 0.00 0.00 0.00 99 1013.4
20260901075232 24 24 0.0 1.6 0.00 0.00 0.00 99 1013.4
20260901074232 24 24 1.6 1.6 0.00 0.00 0.00 99 1013.4
20260901073230 24 15 1.6 1.6 0.00 0.00 0.00 99 1013.4
20260901072229 23 15 0.0 0.0 0.00 0.00 0.00 99 1013.3
20260901071229 23 15 0.0 0.0 0.00 0.00 0.00 98 1013.3
20260901070228 23 15 0.0 0.0 0.00 0.00 0.00 98 1013.4
20260901065227 24 15 0.0 0.0 0.00 0.00 0.00 98 1013.7
20260901064226 24 15 0.0 1.6 0.00 0.00 0.00 98 1013.7
20260901063225 24 15 0.0 1.6 0.00 0.00 0.00 98 1013.7
20260901062224 24 15 0.0 0.0 0.00 0.00 0.00 98 1014.0
20260901061223 24 15 0.0 0.0 0.00 0.00 0.00 98 1014.0
20260901060222 24 15 0.0 0.0 0.00 0.00 0.00 98 1014.0
20260901055150 24 14 0.0 0.0 0.00 0.00 0.00 98 1014.4
20260901054149 24 15 0.0 0.0 0.00 0.00 0.00 98 1014.4
20260901053148 25 15 0.0 0.0 0.00 0.00 0.00 98 1014.4
20260901052147 25 15 0.0 0.0 0.00 0.00 0.00 98 1014.4
20260901051147 25 15 0.0 0.0 0.00 0.00 0.00 98 1014.7
20260901050146 25 15 0.0 0.0 0.00 0.00 0.00 97 1014.7
20260901045145 25 15 0.0 0.0 0.00 0.00 0.00 97 1014.7
20260901044144 25 15 0.0 0.0 0.00 0.00 0.00 97 1015.0
20260901043143 25 15 0.0 0.0 0.00 0.00 0.00 97 1015.1
20260901042142 25 15 0.0 0.0 0.00 0.00 0.00 97 1015.1
20260901041110 25 15 0.0 1.6 0.00 0.00 0.00 97 1015.1
20260901040008 25 15 1.6 1.6 0.00 0.00 0.00 97 1015.1
20260901035005 25 15 0.0 0.0 0.00 0.00 0.00 97 1015.1
20260901034004 25 15 0.0 0.0 0.00 0.00 0.00 97 1015.1
20260901032932 25 15 0.0 0.0 0.00 0.00 0.00 96 1015.1
20260901031931 25 15 0.0 0.0 0.00 0.00 0.00 96 1015.1
20260901030930 25 15 0.0 0.0 0.00 0.00 0.00 96 1015.1
20260901025930 26 15 0.0 0.0 0.00 0.00 0.00 96 1015.1
20260901024929 26 15 0.0 0.0 0.00 0.00 0.00 95 1015.1
20260901023857 26 14 0.0 0.0 0.00 0.00 0.00 95 1015.1
20260901022856 26 15 0.0 1.6 0.00 0.00 0.00 95 1015.1
20260901021855 26 15 0.0 1.6 0.00 0.00 0.00 95 1015.1
20260901020854 26 15 1.6 1.6 0.00 0.00 0.00 95 1015.1
20260901015853 26 15 1.6 1.6 0.00 0.00 0.00 95 1015.1
20260901014852 26 15 0.0 1.6 0.00 0.00 0.00 95 1015.1
20260901013852 26 15 1.6 1.6 0.00 0.00 0.00 95 1014.7
20260901012851 26 15 0.0 0.0 0.00 0.00 0.00 95 1014.4
20260901011850 26 15 0.0 0.0 0.00 0.00 0.00 95 1014.4
20260901010849 26 15 0.0 0.0 0.00 0.00 0.00 95 1014.4
20260901005848 26 15 0.0 0.0 0.00 0.00 0.00 95 1014.4
20260901004848 26 15 0.0 0.0 0.00 0.00 0.00 95 1014.0
20260901003847 26 15 0.0 0.0 0.00 0.00 0.00 95 1014.0
20260901002846 26 15 0.0 0.0 0.00 0.00 0.00 95 1014.0
20260901001846 26 15 0.0 0.0 0.00 0.00 0.00 94 1014.0
20260901000845 26 15 0.0 0.0 0.00 0.00 0.00 94 1014.0
20260831235844 26 15 0.0 0.0 0.00 0.00 0.00 94 1014.0
20260831234843 26 15 0.0 0.0 0.00 0.00 0.00 93 1014.0
20260831233843 26 15 0.0 0.0 0.00 0.00 0.00 93 1014.0
20260831232811 26 15 0.0 1.6 0.00 0.00 0.00 93 1014.0
20260831231810 26 15 0.0 1.6 0.00 0.00 0.00 93 1013.7
20260831230707 26 28 0.0 3.2 0.00 0.00 0.00 92 1013.7
20260831225706 26 46 0.0 0.0 0.00 0.00 0.00 92 1014.0
20260831224705 26 46 0.0 0.0 0.00 0.00 0.00 92 1014.0
20260831223704 26 45 0.0 1.6 0.00 0.00 0.00 91 1014.0
20260831222703 26 307 0.0 1.6 0.00 0.00 0.00 91 1014.0
20260831221600 26 284 0.0 1.6 0.00 0.00 0.00 91 1014.0
20260831220529 26 282 1.6 1.6 0.00 0.00 0.00 90 1014.3
20260831215457 26 259 0.0 1.6 0.00 0.00 0.00 90 1014.3
20260831214456 27 257 0.0 1.6 0.00 0.00 0.00 89 1014.4
20260831213353 27 281 1.6 3.2 0.00 0.00 0.00 88 1014.4